Tracking 28518 objects as of 1-Mar-2024
HD Live streaming from Space Station
objects crossing your sky now

APRIZESAT 5

Track APRIZESAT 5 now!
10-day predictions
APRIZESAT 5 is classified as:


NORAD ID: 37792
Int'l Code: 2011-044E
Perigee: 605.5 km
Apogee: 684.0 km
Inclination: 98.3 °
Period: 97.5 minutes
Semi major axis: 7015 km
RCS: 0.107 m2 (medium)
Launch date: August 17, 2011
Source: United States (US)
Launch site: Orenburg, Russia (OREN)
Your satellite tracking list
Your tracking list is empty




NASA's NSSDC Master Catalog

Two Line Element Set (TLE):
1 37792U 11044E   24060.71350501  .00001117  00000-0  16096-3 0  9997
2 37792  98.2529 322.0893 0055952 175.5818 184.5897 14.77391982674812
Source of the keplerian elements: AFSPC